This demonstration page uses our WeatherBlox Daily Observations layout. Learn more.

Left ArrowRight Arrow

38.80484, -77.04692

Hourly Observations for May 8, 2019

Temp ( °F °C ) Dew Point ( °F °C ) Humidity (%) Winds ( mph kmh ) Pressure ( in mb ) Visibility ( mi km ) Precip ( " mm )
12:52 am 00:52 Mostly Cloudy 68 20 61 16.1 78 78 S 8 13 30.11 1020 10 16 N/A
1:52 am 01:52 Mostly Cloudy 67 19.4 61 16.1 81 81 S 9 15 30.11 1020 10 16 N/A
2:52 am 02:52 Mostly Cloudy 66 18.9 60 15.6 81 81 S 10 17 30.09 1019 10 16 N/A
3:52 am 03:52 Cloudy 66 18.9 61 16.1 84 84 S 6 9 30.10 1019 10 16 N/A
4:52 am 04:52 Partly Cloudy 66 18.9 60 15.6 81 81 N N/A 30.10 1019 10 16 N/A
5:52 am 05:52 Mostly Cloudy 65 18.3 59 15 81 81 E 3 6 30.11 1020 10 16 N/A
6:52 am 06:52 Mostly Cloudy 65 18.3 59 15 81 81 ESE 3 6 30.14 1021 10 16 N/A
7:52 am 07:52 Partly Cloudy 68 20 60 15.6 76 76 NNE 6 9 30.15 1021 10 16 N/A
8:52 am 08:52 Partly Cloudy 69 20.6 61 16.1 76 76 NE 6 9 30.16 1021 10 16 N/A
9:09 am 09:09 Mostly Cloudy 70 21.1 61 16.1 73 73 NNE 6 9 30.16 1021 10 16 N/A
9:52 am 09:52 Mostly Cloudy 70 21.1 61 16.1 73 73 NE 6 9 30.17 1022 10 16 N/A
10:52 am 10:52 Cloudy 70 21.1 61 16.1 73 73 NE 8 13 30.17 1022 10 16 N/A
11:52 am 11:52 Cloudy 72 22.2 62 16.7 71 71 NE 9 15 30.17 1022 10 16 N/A
12:52 pm 12:52 Cloudy 73 22.8 62 16.7 69 69 NNE 9 15 30.16 1021 10 16 N/A
1:52 pm 13:52 Cloudy 73 22.8 62 16.7 69 69 ENE 13 20 30.15 1021 10 16 N/A
2:18 pm 14:18 Cloudy 72 22.2 61 16.1 68 68 NE 12 19 30.16 1021 10 16 N/A
2:52 pm 14:52 Cloudy 71 21.7 62 16.7 73 73 NNE 10 17 30.15 1021 10 16 N/A
3:52 pm 15:52 Cloudy 70 21.1 62 16.7 76 76 NE 15 24 30.14 1021 10 16 N/A
4:52 pm 16:52 Cloudy 68 20 60 15.6 76 76 NE 13 20 30.14 1021 10 16 N/A
5:35 pm 17:35 Cloudy 67 19.4 60 15.6 79 79 NE 14 22 30.14 1021 9 14 N/A
5:52 pm 17:52 Cloudy 66 18.9 60 15.6 81 81 NE 15 24 30.14 1021 9 14 N/A
6:40 pm 18:40 Cloudy 66 18.9 59 15 78 78 ENE 12 19 30.16 1021 10 16 N/A
6:52 pm 18:52 Cloudy 66 18.9 59 15 78 78 ENE 14 22 30.16 1021 10 16 N/A
7:52 pm 19:52 Cloudy 66 18.9 58 14.4 75 75 NE 10 17 30.17 1022 10 16 N/A
8:02 pm 20:02 Cloudy 66 18.9 58 14.4 75 75 NE 12 19 30.17 1022 10 16 N/A
8:41 pm 20:41 Cloudy 66 18.9 58 14.4 75 75 ENE 8 13 30.18 1022 10 16 N/A
8:52 pm 20:52 Cloudy 66 18.9 58 14.4 75 75 ENE 10 17 30.18 1022 10 16 N/A
9:52 pm 21:52 Cloudy 65 18.3 57 13.9 76 76 E 10 17 30.20 1023 10 16 N/A
10:52 pm 22:52 Cloudy 64 17.8 56 13.3 75 75 E 9 15 30.20 1023 10 16 N/A
11:52 pm 23:52 Cloudy 64 17.8 56 13.3 75 75 E 10 17 30.20 1023 10 16 N/A

Powered by AerisWeather